Location: Gradaro
(45.0833°N, 10.8833°E)
Time: 23:37:05
(UTC+00:00)

Cosmos 2263 Rocket - Pass Details

Date: 25 April 2021
Orbit: 824 x 848 km, 71.0° (Epoch: 15 May)

Event Time Altitude Azimuth Distance (km) Brightness Sun altitude
Exits shadow 21:23:42 32° 230° (SW) 1,382 3.2 -26.3°
Maximum altitude 21:26:13 62° 299° (WNW) 927 2.5 -26.5°
Drops below altitude 10° 21:31:45 10° 20° (NNE) 2,438 5.1 -27.0°
Sets 21:34:14 0° 24° (NNE) 3,377 5.8 -27.2°
